Location: The D'Auria's Ocala Star Observatory
(29.0276°N, 82.1742°W)
Time: 07:07:57
(UTC-04:00)

Daily predictions for brighter satellites

Satellite Brightness Start Highest point End
(mag) Time Altitude Azimuth Time Altitude Azimuth Time Altitude Azimuth
Cosmos 2219 4.4 19:08:54 10° SSE 19:13:06 21° E 19:17:18 10° NE
AQUARIUS 4.3 19:09:19 10° SSE 19:13:48 86° WSW 19:18:18 10° NNW
Abrixas 3.3 19:14:27 10° S 19:16:14 21° SE 19:18:02 10° ENE
ISS -3.9 19:13:00 10° NW 19:16:17 82° NE 19:19:32 10° SE
CSL-04 Rocket 4.4 19:11:24 10° S 19:16:42 59° WSW 19:21:58 10° NNW
Tiangong 1 1.2 19:14:41 10° NW 19:17:17 42° NNE 19:19:51 10° ESE
Cosmos 2322 Rocket 2.2 19:12:25 10° NNW 19:18:00 67° ENE 19:23:34 10° SSE
Cosmos 1624 Rocket 4.0 19:16:20 10° N 19:21:32 67° ENE 19:26:44 10° SSE
GP-B 3.1 19:19:17 10° N 19:23:40 62° E 19:28:03 10° S
Cosmos 1371 Rocket 4.1 19:19:08 10° NNW 19:24:31 89° ENE 19:29:50 10° SSE
Cosmos 1315 Rocket 4.2 19:21:41 10° NNE 19:24:36 19° ENE 19:27:33 10° ESE
Meteor 2-1 Rocket 4.3 19:19:07 10° S 19:24:43 59° E 19:30:28 10° NNE
Cosmos 2151 3.5 19:21:57 10° NNE 19:25:52 35° E 19:29:45 10° SSE
CZ-4C R/B 2.6 19:23:22 10° S 19:27:48 33° ESE 19:32:37 10° NE
APEX 3.5 19:27:08 10° S 19:30:36 36° ESE 19:33:31 10° NE
Thor Agena Rocket 4.2 19:28:06 10° NE 19:32:36 32° E 19:37:03 10° SSE
FALCON 9 R/B 0.9 19:30:50 10° WNW 19:33:03 60° SSW 19:36:49 10° ESE
FENGYUN 3A 4.3 19:28:47 10° SE 19:33:30 32° ENE 19:38:15 10° N
SKYMED 2 3.7 19:30:09 10° N 19:34:30 82° WNW 19:38:50 10° SSW
EO 1 Del DPAF 4.1 19:31:22 10° N 19:35:08 54° WNW 19:38:53 10° SSW
Delta 2 Rocket 4.3 19:34:50 10° WNW 19:38:14 31° N 19:41:01 12° NE
Meteor 1-11 4.3 19:32:57 10° N 19:38:44 89° E 19:44:25 10° S
Cosmos 158 Rocket 4.0 19:33:56 10° S 19:38:44 53° ESE 19:43:42 10° NNE
Cosmos 1743 Rocket 3.5 19:34:48 10° N 19:39:11 74° E 19:43:36 10° S
Cosmos 1842 Rocket 4.0 19:35:58 10° SSW 19:40:25 70° W 19:44:53 10° N
Cosmos 2322 4.5 19:35:46 10° N 19:40:47 31° ENE 19:45:44 10° SE
Skynet4D Del rocket 4.3 19:36:10 10° WSW 19:42:46 74° S 19:49:09 16° E
Cosmos 2221 2.7 19:38:56 10° SSE 19:43:02 46° E 19:47:10 10° NNE
ALOS 2.7 19:39:52 10° SE 19:44:13 40° ENE 19:48:34 10° N
RESURS DK-1 3.2 19:40:44 10° N 19:44:19 28° ENE 19:47:26 12° ESE
Cosmos 2058 2.8 19:45:19 10° N 19:49:29 72° E 19:53:35 10° SSE
MONITOR-E 4.1 19:46:45 10° S 19:49:48 85° WSW 19:52:53 10° NNW
ERS-2 4.1 19:47:16 10° SSW 19:50:37 33° W 19:54:00 10° NNW
Atlas Centaur 2 1.9 19:49:26 10° W 19:54:06 80° N 19:58:05 21° E
ASTRO E2 2.9 19:51:48 10° W 19:55:45 60° N 19:57:53 25° ENE
Cosmos 921 Rocket 3.4 19:54:20 10° N 19:58:31 41° ENE 20:02:36 10° SE
Cosmos 2219 Rocket 4.0 19:56:48 10° NNE 19:58:26 13° NE 19:58:26 13° NE
Cosmos 1500 Rocket 3.6 19:56:29 10° N 20:00:49 80° W 20:05:06 10° S
Cosmos 1703 3.5 19:57:16 10° N 20:01:11 72° W 20:05:03 10° S
SPOT 3 Rocket 3.6 19:56:23 10° SSE 20:01:33 85° WSW 20:06:47 10° NNW
Cosmos 1269 Rocket 3.9 19:57:46 10° S 20:02:59 66° ESE 20:08:12 10° NNE
Cosmos 1726 2.2 20:03:00 10° S 20:06:36 50° E 20:10:12 10° NNE
Cosmos 1535 Rocket 4.5 20:00:59 10° SSE 20:06:57 54° E 20:12:52 10° NNE
Meteor 2-10 4.4 20:04:32 10° SSE 20:09:07 37° E 20:13:44 10° NNE
Milstar 3 Cent rocket 4.1 20:00:58 10° W 20:10:29 38° SSW 20:15:52 10° SE
Cosmos 1908 4.1 20:06:41 10° SSW 20:10:31 52° W 20:14:21 10° N
SL-16 R/B 3.9 20:07:48 10° NW 20:12:54 35° WSW 20:17:58 10° SSW
USA 267 3.2 20:09:11 11° NE 20:15:32 84° SE 20:22:04 10° SW
Cosmos 2098 Rocket 2.9 20:12:47 10° S 20:16:37 81° E 20:21:34 10° N
Cosmos 2237 4.3 20:12:46 10° N 20:18:23 55° ENE 20:22:06 21° SE
H-2A R/B 3.2 20:19:23 41° NE 20:19:23 41° NE 20:22:28 10° N
Cosmos 44 3.9 20:15:41 10° SW 20:19:57 49° WNW 20:24:10 10° NNE
ATLAS 2A CENTAUR R/B 1.7 20:20:20 10° SW 20:21:45 31° SSW 20:21:45 31° SSW
Cosmos 1452 Rocket 3.5 20:21:53 10° NNW 20:27:08 80° WSW 20:32:22 10° S
Cosmos 2227 Rocket 3.1 20:26:40 10° S 20:30:08 30° SE 20:30:08 30° SE
Meteor 2-2 Rocket 4.3 20:29:00 10° SSE 20:34:34 52° E 20:40:03 10° NNE
SL-24 R/B - RUBIN 2 3.4 20:31:42 10° NNW 20:36:21 90° ESE 20:37:01 64° SSE
Cosmos 1821 Rocket 4.2 20:32:03 10° SSW 20:38:07 68° W 20:44:18 10° N
Cosmos 1805 Rocket 3.4 20:34:54 10° N 20:39:18 82° E 20:39:28 79° SE
Cosmos 1934 Rocket 4.0 20:37:21 10° S 20:43:41 85° W 20:50:05 10° N
Cosmos 494 Rocket 4.4 20:39:58 10° S 20:43:38 45° SSE 20:43:38 45° SSE
Cosmos 1300 4.0 20:41:42 10° SSW 20:43:52 32° SSW 20:43:52 32° SSW
DELTA 2 R/B (1) 4.2 20:42:59 10° NW 20:48:16 41° NNE 20:48:17 41° NNE
Hubble Space Telescope 2.4 20:45:55 10° SW 20:48:09 25° SSW 20:48:09 25° SSW
Centaur AC-112 3.3 20:45:45 10° W 20:49:56 40° WSW 20:49:56 40° WSW
Tiangong 1 4.3 20:51:05 10° WSW 20:51:11 10° WSW 20:51:11 10° WSW
Cosmos 2360 Rocket 3.4 20:49:08 10° NW 20:54:23 40° WSW 20:59:37 10° S
COSMOS 2428 2.5 20:48:59 10° NNW 20:54:29 76° NE 20:54:29 76° NE
Cosmos 2333 Rocket 3.8 20:52:44 10° N 20:54:58 22° NNE 20:54:58 22° NNE
Cosmos 2297 Rocket 3.9 21:04:04 10° S 21:05:48 21° S 21:05:48 21° S
Cosmos 1605 Rocket 4.0 21:06:12 10° SSW 21:12:19 72° W 21:18:25 10° N
Cosmos 2123 Rocket 4.0 21:08:03 10° N 21:14:18 79° W 21:14:34 77° SW
CZ-4C R/B 4.1 21:12:12 10° WSW 21:16:16 23° NW 21:20:08 12° N
Atlas Centaur 2 3.7 21:37:51 10° W 21:40:43 33° W 21:40:43 33° W
Cosmos 2219 Rocket 4.1 21:38:17 10° NNW 21:40:12 22° NNW 21:40:12 22° NNW
